Hereford, TX

1:58 PM CDT on June 22, 2017 (GMT -0500)
Hereford Municipal

Weather History for KHRX - October, 2013

Change the Weather History Date:

Friday, October 4, 2013

  Actual Average (KCVN) Record (KCVN)
Temperature  
Mean Temperature 68 °F -  
Max Temperature 84 °F 78 °F 92 °F (1934)
Min Temperature 52 °F 48 °F 35 °F (1932)
Cooling Degree Days 3    
Growing Degree Days 18 (Base 50)    
Moisture  
Dew Point 32 °F    
Average Humidity 27    
Maximum Humidity 53    
Minimum Humidity 14    
Precipitation  
Precipitation 0.00 in - - ()
Sea Level Pressure  
Sea Level Pressure 29.89 in    
Wind  
Wind Speed 13 mph (WSW)    
Max Wind Speed 24 mph    
Max Gust Speed 32 mph    
Visibility 10 miles    
Events      
Averages and records for this station are not official NWS values.
T = Trace of Precipitation, MM = Missing Value Source: NWS Daily Summary

Daily Weather History Graph

Daily Weather History Graph

Search for Another Location

Airport or City:

Trip Planner

Search our weather history database for the weather conditions in past years. The results will help you decide how hot, cold, wet, or windy it might be!

Date:

Astronomy

Oct. 04, 2013 Rise Set
Actual Time 7:46 AM CDT 7:28 PM CDT
Civil Twilight 7:21 AM CDT 7:53 PM CDT
Nautical Twilight 6:52 AM CDT 8:23 PM CDT
Astronomical Twilight 6:22 AM CDT 8:52 PM CDT
Moon 7:23 AM CDT (10/4) 7:14 PM CDT (10/4)
Length of Visible Light 12h 32m
Length of Day
11h 42m
Waning Crescent, 0% of the Moon is Illuminated
Oct 4
Waning Crescent
Oct 4
New
Oct 11
First Quarter
Oct 18
Full
Oct 26
Last Quarter

Hourly Weather History & Observations

Time (CDT) Temp. Dew Point Humidity Pressure Visibility Wind Dir Wind Speed Gust Speed Precip Events Conditions
12:15 AM 70.2 °F 34.0 °F 26% 29.81 in 10.0 mi SW 17.3 mph 21.9 mph N/A   Clear
12:35 AM 69.3 °F 32.2 °F 25% 29.81 in 10.0 mi SW 15.0 mph - N/A   Clear
12:55 AM 68.5 °F 32.4 °F 26% 29.81 in 10.0 mi SW 15.0 mph - N/A   Clear
1:15 AM 67.1 °F 32.2 °F 27% 29.81 in 10.0 mi SW 13.8 mph - N/A   Clear
1:35 AM 64.9 °F 32.2 °F 29% 29.81 in 10.0 mi South 11.5 mph - N/A   Clear
1:55 AM 64.0 °F 32.0 °F 30% 29.81 in 10.0 mi South 11.5 mph - N/A   Clear
2:15 AM 62.2 °F 31.6 °F 32% 29.82 in 10.0 mi South 9.2 mph - N/A   Clear
2:35 AM 61.2 °F 31.5 °F 33% 29.82 in 10.0 mi SSW 9.2 mph - N/A   Clear
2:55 AM 61.7 °F 32.0 °F 33% 29.82 in 10.0 mi SSW 10.4 mph 16.1 mph N/A   Clear
3:15 AM 60.3 °F 32.4 °F 35% 29.82 in 10.0 mi SSW 9.2 mph - N/A   Clear
3:35 AM 60.1 °F 32.0 °F 35% 29.82 in 10.0 mi SSW 11.5 mph - N/A   Clear
3:55 AM 60.8 °F 32.0 °F 34% 29.81 in 10.0 mi SSW 13.8 mph 18.4 mph N/A   Clear
4:15 AM 60.8 °F 32.0 °F 34% 29.81 in 10.0 mi SSW 13.8 mph - N/A   Clear
4:35 AM 61.9 °F 32.0 °F 33% 29.81 in 10.0 mi SSW 17.3 mph 21.9 mph N/A   Clear
4:55 AM 61.9 °F 32.0 °F 33% 29.82 in 10.0 mi SSW 17.3 mph 23.0 mph N/A   Clear
5:15 AM 60.3 °F 32.4 °F 35% 29.82 in 10.0 mi SSW 9.2 mph - N/A   Clear
5:35 AM 59.2 °F 33.3 °F 38% 29.83 in 10.0 mi SSW 6.9 mph - N/A   Clear
5:55 AM 57.2 °F 33.4 °F 41% 29.84 in 10.0 mi SSW 5.8 mph - N/A   Clear
6:15 AM 54.9 °F 33.3 °F 44% 29.84 in 10.0 mi South 6.9 mph - N/A   Clear
6:35 AM 53.6 °F 33.8 °F 47% 29.85 in 10.0 mi South 6.9 mph - N/A   Clear
6:55 AM 53.4 °F 34.0 °F 48% 29.85 in 10.0 mi SSW 6.9 mph - N/A   Clear
7:35 AM 52.0 °F 34.5 °F 51% 29.86 in 10.0 mi SW 4.6 mph - N/A   Clear
7:55 AM 53.1 °F 35.4 °F 51% 29.86 in 10.0 mi South 5.8 mph - N/A   Clear
8:15 AM 52.3 °F 35.8 °F 53% 29.86 in 10.0 mi SW 4.6 mph - N/A   Clear
8:35 AM 55.8 °F 36.5 °F 48% 29.88 in 10.0 mi WSW 3.5 mph - N/A   Clear
8:55 AM 59.2 °F 37.0 °F 44% 29.89 in 10.0 mi West 6.9 mph - N/A   Clear
9:15 AM 60.1 °F 34.3 °F 38% 29.90 in 10.0 mi WSW 10.4 mph - N/A   Clear
9:35 AM 64.0 °F 32.9 °F 31% 29.90 in 10.0 mi SW 12.7 mph 16.1 mph N/A   Clear
9:55 AM 67.1 °F 32.9 °F 28% 29.91 in 10.0 mi SW 12.7 mph 18.4 mph N/A   Clear
10:15 AM 70.3 °F 33.1 °F 25% 29.91 in 10.0 mi SW 18.4 mph 21.9 mph N/A   Clear
10:35 AM 73.2 °F 32.2 °F 22% 29.91 in 10.0 mi SW 17.3 mph 24.2 mph N/A   Clear
10:55 AM 75.4 °F 32.9 °F 21% 29.91 in 10.0 mi WSW 13.8 mph 21.9 mph N/A   Clear
11:15 AM 78.1 °F 32.0 °F 19% 29.91 in 10.0 mi West 19.6 mph 26.5 mph N/A   Clear
11:35 AM 79.2 °F 32.2 °F 18% 29.91 in 10.0 mi WSW 20.7 mph 25.3 mph N/A   Clear
11:55 AM 79.7 °F 32.2 °F 18% 29.91 in 10.0 mi West 17.3 mph 23.0 mph N/A   Clear
12:15 PM 80.2 °F 32.0 °F 17% 29.91 in 10.0 mi West 17.3 mph - N/A   Clear
12:35 PM 80.8 °F 31.8 °F 17% 29.91 in 10.0 mi West 13.8 mph 21.9 mph N/A   Clear
12:55 PM 81.7 °F 32.0 °F 17% 29.91 in 10.0 mi WSW 18.4 mph 24.2 mph N/A   Clear
1:15 PM 81.7 °F 31.5 °F 16% 29.91 in 10.0 mi WSW 16.1 mph 25.3 mph N/A   Clear
1:35 PM 82.2 °F 31.3 °F 16% 29.91 in 10.0 mi West 17.3 mph 24.2 mph N/A   Clear
1:55 PM 82.8 °F 31.1 °F 15% 29.90 in 10.0 mi WSW 17.3 mph 25.3 mph N/A   Clear
2:15 PM 82.9 °F 31.5 °F 16% 29.89 in 10.0 mi West 12.7 mph 23.0 mph N/A   Clear
2:35 PM 83.7 °F 31.1 °F 15% 29.89 in 10.0 mi West 10.4 mph 24.2 mph N/A   Clear
2:55 PM 83.5 °F 30.6 °F 15% 29.88 in 10.0 mi WSW 16.1 mph 28.8 mph N/A   Clear
3:15 PM 84.2 °F 30.6 °F 14% 29.88 in 10.0 mi WSW 13.8 mph 23.0 mph N/A   Clear
3:35 PM 84.4 °F 30.2 °F 14% 29.88 in 10.0 mi West 11.5 mph 24.2 mph N/A   Clear
3:55 PM 84.2 °F 30.4 °F 14% 29.89 in 10.0 mi West 21.9 mph 26.5 mph N/A   Clear
4:15 PM 83.7 °F 29.7 °F 14% 29.89 in 10.0 mi WSW 12.7 mph 25.3 mph N/A   Clear
4:35 PM 84.0 °F 29.7 °F 14% 29.89 in 10.0 mi West 13.8 mph 23.0 mph N/A   Clear
4:55 PM 83.7 °F 28.9 °F 14% 29.89 in 10.0 mi WSW 15.0 mph 24.2 mph N/A   Clear
5:15 PM 83.1 °F 28.4 °F 14% 29.89 in 10.0 mi West 16.1 mph 19.6 mph N/A   Clear
5:35 PM 82.8 °F 27.9 °F 14% 29.89 in 10.0 mi West 13.8 mph 23.0 mph N/A   Clear
5:55 PM 82.0 °F 28.8 °F 14% 29.90 in 10.0 mi West 16.1 mph 21.9 mph N/A   Clear
6:15 PM 80.8 °F 29.5 °F 15% 29.90 in 10.0 mi West 16.1 mph - N/A   Clear
6:35 PM 79.9 °F 31.3 °F 17% 29.91 in 10.0 mi West 10.4 mph - N/A   Clear
6:55 PM 78.1 °F 32.0 °F 19% 29.91 in 10.0 mi West 9.2 mph - N/A   Clear
7:15 PM 75.9 °F 32.0 °F 20% 29.91 in 10.0 mi WNW 5.8 mph - N/A   Clear
7:35 PM 72.7 °F 32.2 °F 23% 29.93 in 10.0 mi WNW 5.8 mph - N/A   Clear
7:55 PM 68.5 °F 32.0 °F 26% 29.93 in 10.0 mi NW 9.2 mph - N/A   Clear
8:15 PM 67.3 °F 32.2 °F 27% 29.94 in 10.0 mi NNW 9.2 mph - N/A   Clear
8:35 PM 65.7 °F 31.3 °F 28% 29.95 in 10.0 mi NNW 10.4 mph - N/A   Clear
8:55 PM 66.7 °F 28.6 °F 24% 29.96 in 10.0 mi NW 13.8 mph 18.4 mph N/A   Clear
9:15 PM 65.3 °F 26.4 °F 23% 29.97 in 10.0 mi NW 11.5 mph - N/A   Clear
9:35 PM 63.3 °F 26.2 °F 25% 29.98 in 10.0 mi NNW 9.2 mph - N/A   Clear
9:55 PM 59.4 °F 27.5 °F 30% 29.98 in 10.0 mi NNW 9.2 mph - N/A   Clear
10:15 PM 59.5 °F 28.6 °F 31% 30.02 in 10.0 mi NNE 21.9 mph 28.8 mph N/A   Clear
10:35 PM 59.9 °F 30.7 °F 33% 30.03 in 10.0 mi NNE 20.7 mph 28.8 mph N/A   Clear
10:55 PM 58.3 °F 29.1 °F 33% 30.05 in 10.0 mi NNE 24.2 mph 32.2 mph N/A   Clear
11:15 PM 56.3 °F 28.4 °F 34% 30.06 in 10.0 mi NNE 23.0 mph 29.9 mph N/A   Clear
11:35 PM 55.0 °F 28.8 °F 37% 30.08 in 10.0 mi NNE 20.7 mph 27.6 mph N/A   Clear
11:55 PM 53.8 °F 28.8 °F 38% 30.08 in 10.0 mi NNE 21.9 mph 28.8 mph N/A   Clear